Location: Feura Bush
(42.5779°N, 73.8787°W)
Time: 18:54:00
(UTC+00:00)

UNISAT 6 - Visible Passes

Search period start: 05 December 2024 00:00
Search period end: 15 December 2024 00:00
Orbit: 585 x 656 km, 97.7° (Epoch: 05 December)

Date Brightness Start Highest point End Pass type
(mag) Time Alt. Az. Time Alt. Az. Time Alt. Az.
07 Dec ? 21:58:03 10° N 22:01:56 39° WNW 22:05:52 10° SW visible
08 Dec ? 22:15:43 10° NNW 22:19:12 26° WNW 22:22:43 10° SW visible
09 Dec ? 22:33:34 10° NNW 22:36:24 18° WNW 22:39:15 10° WSW visible
10 Dec ? 22:51:54 10° NW 22:53:32 12° WNW 22:55:12 10° W visible
12 Dec ? 21:48:26 10° N 21:52:30 50° WNW 21:56:37 10° SSW visible
13 Dec ? 22:05:56 10° N 22:09:42 33° WNW 22:13:31 10° SW visible
14 Dec ? 22:23:35 10° NNW 22:26:51 22° WNW 22:30:09 10° WSW visible
